Effective Sunday, March 17, 2024, the National Weather Service National Data Buoy Center will discontinue its Dial-A-Buoy Interactive Voice Response system. For more information, see Service Change Notice 24-06 (PDF).

Station CRGA2 - Craig, AK Image indicating link to RSS feed of recent meteorological observations for station CRGA2


Conditions at CRGA2 as of
(11:24 pm AKST on 02/28/2024)
0824 GMT on 02/29/2024:
     

Click on the graph icon in the table below to see a time series plot of the last five days of that observation.

5-day plot - Wind Direction Wind Direction (WDIR): SE ( 140 deg true )
5-day plot - Wind Speed Wind Speed (WSPD): 8 kts
5-day plot - Wind Gust Wind Gust (GST): 16 kts
5-day plot - Atmospheric Pressure Atmospheric Pressure (PRES):29.13 in
5-day plot - Air Temperature Air Temperature (ATMP): 33.8 °F
5-day plot - Dew Point Dew Point (DEWP): 23.4 °F
5-day plot - Wind Chill Wind Chill (CHILL): 26.4 °F
5-day plot - Wind Speed at 10 Meters Wind Speed at 10 meters (WSPD10M): 8 kts
5-day plot - Wind Speed at 20 Meters Wind Speed at 20 meters (WSPD20M): 10 kts
5-day plot -  Wind Speed, Wind Gust and Atmospheric Pressure Combined plot of Wind Speed, Gust, and Air Pressure
Supplemental Measurements
Previous observations
TIME
(AKST)
5-day plot - Wind Direction
WDIR
 
5-day plot - Wind Speed
WSPD
kts
5-day plot - Wind Gust
GST
kts
5-day plot - Wave Height
WVHT
ft
5-day plot - Dominant Wave Period
DPD
sec
5-day plot - Average Wave Period
APD
sec
5-day plot - Mean Wave Direction
MWD
 
5-day plot - Atmospheric Pressure
PRES
in
5-day plot - Pressure Tendency
PTDY
in
5-day plot - Air Temperature
ATMP
°F
5-day plot - Water Temperature
WTMP
°F
5-day plot - Dew Point
DEWP
°F
5-day plot - Salinity
SAL
psu
5-day plot - Visibility
VIS
nmi
5-day plot - Tide (above MLLW)
TIDE
ft
2024-02-28 10:24 pmSSE 7 12----29.13- 32.4- 32.4---
2024-02-28 09:24 pm NW 2 6----29.13- 31.8- 31.1---
2024-02-28 08:24 pm SE 8 15----29.14- 32.5- 30.0---
2024-02-28 07:24 pm SE 4 9----29.13- 34.3- 24.6---
2024-02-28 06:24 pm SE 7 11----29.13- 34.2- 27.0---
2024-02-28 05:24 pm SE 8 19----29.14- 34.5- 26.1---
2024-02-28 04:24 pm SE 11 17----29.14- 34.7- 27.0---
2024-02-28 03:24 pm SE 8 16----29.15- 36.5- 28.8---
2024-02-28 02:24 pm S 5 11----29.15- 33.1- 31.1---
2024-02-28 01:24 pmSSE 6 18----29.17- 33.6- 29.1---
2024-02-28 12:24 pm SE 7 14----29.18- 32.0- 31.3---
2024-02-28 11:24 am SE 9 21----29.18- 34.0- 23.5---
2024-02-28 10:24 am SE 10 23----29.18- 35.1- 26.6---
2024-02-28 09:24 am SE 10 19----29.18- 33.8- 22.8---
2024-02-28 08:24 am SE 9 18----29.18- 34.0- 27.5---
2024-02-28 07:24 amSSE 10 17----29.18- 33.6- 27.9---
2024-02-28 06:24 amSSE 7 19----29.18- 32.9- 27.1---
2024-02-28 05:24 amSSE 6 14----29.19- 32.7- 30.2---
2024-02-28 04:24 am S 4 12----29.20- 33.1- 30.6---
2024-02-28 03:24 amSSE 10 17----29.20- 33.8- 25.3---
2024-02-28 02:24 amSSE 5 14----29.21- 33.8- 26.1---
2024-02-28 01:24 amSSE 4 19----29.23- 32.2- 30.9---
2024-02-28 12:24 amSSE 6 13----29.22- 32.7- 31.5---